QPF
0.02 0.00 0.01 0.00 0.00 0.00 0.00 0.00 0.00 0.00 0.00 0.00 0.00 0.00 0.00 0.00 0.00 0.00 0.00 0.00 0.00 0.00 0.00 0.00 0.00 0.00 0.00 0.00 0.00 0.00 0.00 0.00 0.00 0.00 0.00 0.00 0.00 0.00 0.00 0.00 0.00 0.00 0.00
0.02 0.00 0.00 0.01 0.00 0.01 0.00 0.00 0.00 0.00 0.00 0.00 0.00 0.00 0.00 0.00 0.00 0.00 0.00 0.00 0.00 0.00 0.00 0.00 0.00 0.00 0.00 0.00 0.00 0.00 0.00 0.00 0.00 0.00 0.00 0.00 0.00 0.00 0.00 0.00 0.00 0.00 0.00
0.00 0.01 0.00 0.01 0.00 0.00 0.00 0.00 0.00 0.00 0.00 0.00 0.00 0.00 0.00 0.00 0.00 0.00 0.00 0.00 0.00 0.00 0.00 0.00 0.00 0.00 0.00 0.00 0.00 0.00 0.00 0.00 0.00 0.00 0.00 0.00 0.00 0.00 0.00 0.00 0.00 0.00 0.00
0.00 0.02 0.00 0.00 0.00 0.00 0.01 0.00 0.00 0.00 0.00 0.00 0.00 0.00 0.00 0.00 0.00 0.00 0.00 0.00 0.00 0.00 0.00 0.00 0.00 0.00 0.00 0.00 0.00 0.00 0.00 0.00 0.00 0.00 0.00 0.00 0.00 0.00 0.00 0.00 0.00 0.00 0.00
0.00 0.00 0.01 0.00 0.00 0.02 0.04 0.01 0.00 0.00 0.00 0.00 0.00 0.00 0.00 0.00 0.00 0.00 0.00 0.00 0.00 0.00 0.00 0.00 0.00 0.00 0.00 0.00 0.00 0.00 0.00 0.00 0.00 0.00 0.00 0.00 0.00 0.00 0.00 0.00 0.00 0.00 0.00
0.00 0.00 0.00 0.00 0.00 0.02 0.04 0.04 0.00 0.00 0.00 0.00 0.00 0.00 0.00 0.00 0.00 0.00 0.00 0.00 0.00 0.00 0.00 0.00 0.00 0.00 0.00 0.00 0.00 0.00 0.00 0.00 0.00 0.00 0.00 0.00 0.00 0.00 0.00 0.00 0.00 0.00 0.00
0.00 0.00 0.00 0.00 0.00 0.01 0.03 0.02 0.01 0.00 0.00 0.00 0.00 0.00 0.00 0.00 0.00 0.00 0.00 0.00 0.00 0.00 0.00 0.00 0.00 0.00 0.00 0.00 0.00 0.00 0.00 0.00 0.00 0.00 0.00 0.00 0.00 0.00 0.00 0.00 0.00 0.00 0.00
0.00 0.00 0.00 0.00 0.01 0.01 0.03 0.03 0.02 0.00 0.00 0.00 0.00 0.00 0.00 0.00 0.00 0.00 0.00 0.00 0.00 0.00 0.00 0.00 0.00 0.00 0.00 0.00 0.00 0.00 0.00 0.00 0.00 0.00 0.00 0.00 0.00 0.00 0.00 0.00 0.00 0.00 0.00
0.00 0.00 0.00 0.00 0.01 0.02 0.04 0.04 0.02 0.01 0.00 0.00 0.00 0.00 0.00 0.00 0.00 0.00 0.00 0.00 0.00 0.00 0.00 0.00 0.00 0.00 0.00 0.00 0.00 0.00 0.00 0.00 0.00 0.00 0.00 0.00 0.00 0.00 0.00 0.00 0.00 0.00 0.00
0.00 0.00 0.00 0.00 0.00 0.02 0.05 0.06 0.04 0.01 0.00 0.00 0.00 0.00 0.00 0.00 0.00 0.00 0.00 0.00 0.00 0.00 0.00 0.00 0.00 0.00 0.00 0.00 0.00 0.00 0.00 0.00 0.00 0.00 0.00 0.00 0.00 0.00 0.00 0.00 0.00 0.00 0.00
0.00 0.00 0.00 0.00 0.00 0.02 0.03 0.03 0.02 0.01 0.00 0.00 0.00 0.00 0.00 0.00 0.00 0.00 0.00 0.00 0.00 0.00 0.00 0.00 0.00 0.00 0.00 0.00 0.00 0.00 0.00 0.00 0.00 0.00 0.00 0.00 0.00 0.00 0.00 0.00 0.00 0.00 0.00
0.00 0.00 0.00 0.00 0.00 0.01 0.01 0.02 0.01 0.00 0.02 0.01 0.00 0.00 0.00 0.00 0.00 0.00 0.00 0.00 0.00 0.00 0.00 0.00 0.00 0.00 0.00 0.00 0.00 0.00 0.00 0.00 0.00 0.00 0.00 0.00 0.00 0.00 0.00 0.00 0.00 0.00 0.00
0.00 0.00 0.00 0.00 0.00 0.00 0.00 0.00 0.00 0.02 0.02 0.02 0.01 0.00 0.00 0.00 0.00 0.00 0.00 0.00 0.00 0.00 0.00 0.00 0.00 0.00 0.00 0.00 0.00 0.00 0.00 0.00 0.00 0.00 0.00 0.00 0.00 0.00 0.00 0.00 0.00 0.00 0.00
0.00 0.00 0.00 0.00 0.00 0.00 0.00 0.00 0.00 0.00 0.02 0.02 0.02 0.02 0.00 0.00 0.00 0.00 0.00 0.00 0.00 0.00 0.00 0.00 0.00 0.00 0.00 0.00 0.00 0.00 0.00 0.00 0.00 0.00 0.00 0.00 0.00 0.00 0.00 0.00 0.00 0.00 0.00
0.00 0.00 0.00 0.00 0.00 0.00 0.00 0.00 0.00 0.00 0.00 0.00 0.01 0.03 0.02 0.00 0.00 0.00 0.00 0.00 0.00 0.00 0.00 0.00 0.00 0.00 0.00 0.00 0.00 0.00 0.00 0.00 0.00 0.00 0.00 0.00 0.00 0.00 0.00 0.00 0.00 0.00 0.00
0.00 0.00 0.00 0.00 0.00 0.00 0.00 0.00 0.00 0.00 0.00 0.00 0.01 0.01 0.00 0.00 0.00 0.00 0.00 0.00 0.00 0.00 0.00 0.00 0.00 0.00 0.00 0.00 0.00 0.00 0.00 0.00 0.00 0.00 0.00 0.00 0.00 0.00 0.00 0.00 0.00 0.00 0.00
0.00 0.00 0.00 0.00 0.00 0.00 0.00 0.00 0.00 0.00 0.00 0.00 0.00 0.00 0.00 0.00 0.00 0.00 0.00 0.00 0.00 0.00 0.00 0.00 0.00 0.00 0.00 0.00 0.00 0.00 0.00 0.00 0.00 0.00 0.00 0.00 0.00 0.00 0.00 0.00 0.00 0.00 0.00
0.00 0.00 0.00 0.00 0.00 0.00 0.00 0.00 0.00 0.00 0.00 0.00 0.00 0.00 0.00 0.00 0.00 0.00 0.00 0.00 0.00 0.00 0.00 0.00 0.00 0.00 0.00 0.00 0.00 0.00 0.00 0.00 0.00 0.00 0.00 0.00 0.00 0.00 0.00 0.00 0.00 0.00 0.00
0.00 0.00 0.00 0.00 0.00 0.00 0.00 0.00 0.00 0.00 0.00 0.00 0.00 0.00 0.00 0.00 0.00 0.00 0.00 0.00 0.00 0.00 0.00 0.00 0.00 0.00 0.00 0.00 0.00 0.00 0.00 0.00 0.00 0.00 0.00 0.00 0.00 0.00 0.00 0.00 0.00 0.00 0.00
0.00 0.00 0.00 0.00 0.00 0.00 0.00 0.00 0.00 0.00 0.00 0.00 0.00 0.00 0.00 0.00 0.00 0.00 0.00 0.00 0.00 0.00 0.00 0.00 0.00 0.00 0.00 0.00 0.00 0.00 0.00 0.00 0.00 0.00 0.00 0.00 0.00 0.00 0.00 0.00 0.00 0.00 0.00
0.00 0.00 0.00 0.00 0.01 0.00 0.00 0.00 0.00 0.00 0.00 0.00 0.00 0.00 0.00 0.00 0.00 0.00 0.00 0.00 0.00 0.00 0.00 0.00 0.00 0.00 0.00 0.00 0.00 0.00 0.00 0.00 0.00 0.00 0.00 0.00 0.00 0.00 0.00 0.00 0.00 0.00 0.00
0.01 0.00 0.01 0.02 0.01 0.00 0.00 0.00 0.00 0.00 0.00 0.00 0.00 0.00 0.00 0.00 0.00 0.00 0.00 0.00 0.00 0.00 0.00 0.00 0.00 0.00 0.00 0.00 0.00 0.00 0.00 0.00 0.00 0.00 0.00 0.00 0.00 0.00 0.00 0.00 0.00 0.00 0.00
0.01 0.00 0.01 0.01 0.00 0.00 0.00 0.00 0.00 0.00 0.00 0.00 0.00 0.00 0.00 0.00 0.00 0.00 0.00 0.00 0.00 0.00 0.00 0.00 0.00 0.00 0.00 0.00 0.00 0.00 0.00 0.00 0.00 0.00 0.00 0.00 0.00 0.00 0.00 0.00 0.00 0.00 0.00
0.00 0.00 0.00 0.00 0.00 0.00 0.00 0.00 0.00 0.00 0.00 0.00 0.00 0.00 0.00 0.00 0.00 0.00 0.00 0.00 0.00 0.00 0.00 0.00 0.00 0.00 0.00 0.00 0.00 0.00 0.00 0.00 0.00 0.00 0.00 0.00 0.00 0.00 0.00 0.00 0.00 0.00 0.00
0.00 0.00 0.00 0.00 0.00 0.00 0.00 0.00 0.00 0.00 0.00 0.00 0.00 0.00 0.00 0.00 0.00 0.00 0.00 0.00 0.00 0.00 0.00 0.00 0.00 0.00 0.00 0.00 0.00 0.00 0.00 0.00 0.00 0.00 0.00 0.00 0.00 0.00 0.00 0.00 0.00 0.00 0.00
0.00 0.00 0.00 0.00 0.00 0.00 0.00 0.00 0.00 0.00 0.00 0.00 0.00 0.00 0.00 0.00 0.00 0.00 0.00 0.00 0.00 0.00 0.00 0.00 0.00 0.00 0.00 0.00 0.00 0.00 0.00 0.00 0.00 0.00 0.00 0.00 0.00 0.00 0.00 0.00 0.00 0.00 0.00
MSLP
1017.87 1017.63 1018.27 1019.17 1019.63 1020.51 1021.00 1021.36 1022.16 1023.16 1023.73 1024.10 1024.46 1024.69 1025.37 1025.88 1025.70 1025.56 1025.61 1025.82 1025.92 1026.26 1026.63 1027.18 1027.50 1027.62 1027.99 1028.41 1028.34 1028.71 1029.23 1029.62 1029.50 1029.68 1030.12 1030.25 1030.01 1029.94 1030.25 1030.20 1030.20 1030.05 1029.88
1017.72 1017.57 1018.17 1018.77 1019.29 1019.73 1020.65 1021.01 1021.94 1022.83 1023.19 1023.46 1024.06 1024.60 1024.87 1025.70 1025.55 1025.65 1025.78 1025.94 1026.05 1026.31 1026.64 1027.14 1027.63 1027.85 1028.36 1028.81 1029.03 1029.04 1029.62 1030.26 1030.18 1030.32 1030.76 1031.01 1031.09 1030.92 1030.90 1030.75 1030.64 1030.86 1030.44
1016.68 1016.64 1015.86 1016.47 1018.79 1019.57 1020.23 1020.73 1021.60 1022.30 1022.74 1023.13 1023.78 1024.54 1025.15 1025.73 1026.10 1026.00 1026.11 1026.18 1026.21 1026.42 1026.78 1027.28 1027.74 1028.24 1028.62 1029.29 1029.58 1029.58 1029.86 1030.73 1031.08 1030.73 1030.89 1031.52 1031.78 1031.76 1031.64 1031.62 1031.51 1031.33 1031.05
1016.05 1015.63 1016.16 1017.38 1017.89 1018.77 1019.71 1020.78 1020.93 1021.74 1022.40 1022.79 1023.57 1024.12 1024.92 1025.56 1025.71 1025.91 1026.07 1026.32 1026.34 1026.65 1027.05 1027.50 1028.01 1028.53 1028.98 1029.46 1029.78 1029.97 1030.39 1030.79 1031.45 1031.39 1031.44 1031.53 1031.81 1032.30 1032.50 1032.13 1031.90 1031.63 1031.58
1015.19 1015.18 1015.74 1016.69 1017.67 1018.65 1019.66 1020.28 1020.42 1021.21 1021.75 1022.50 1023.18 1023.94 1024.71 1025.12 1025.36 1025.77 1026.04 1026.36 1026.64 1026.79 1027.16 1027.60 1028.29 1028.82 1029.20 1029.72 1030.08 1030.45 1030.92 1031.33 1031.80 1031.90 1031.94 1032.04 1032.26 1032.51 1032.87 1033.10 1032.83 1032.16 1032.01
1015.04 1015.11 1016.13 1017.11 1017.95 1018.90 1019.75 1020.10 1020.37 1020.86 1021.37 1021.86 1022.67 1023.34 1024.20 1024.79 1025.33 1025.74 1026.13 1026.46 1026.93 1027.31 1027.59 1027.89 1028.25 1028.85 1029.37 1029.92 1030.38 1030.79 1031.21 1031.74 1032.07 1032.22 1032.27 1032.42 1032.68 1032.91 1033.00 1033.13 1033.14 1033.02 1032.47
1015.08 1015.35 1015.93 1016.76 1017.73 1018.43 1018.94 1019.50 1019.92 1020.29 1020.85 1021.49 1022.24 1022.77 1023.52 1024.00 1024.45 1025.08 1025.65 1026.31 1026.96 1027.52 1027.91 1028.16 1028.62 1029.03 1029.51 1030.05 1030.49 1031.01 1031.45 1031.81 1032.28 1032.46 1032.64 1032.62 1032.79 1032.93 1033.07 1033.24 1033.43 1033.42 1032.92
1014.53 1014.98 1015.11 1015.97 1016.74 1017.41 1018.24 1018.94 1019.54 1020.05 1020.45 1021.09 1021.72 1022.35 1022.79 1023.24 1023.78 1024.40 1025.11 1025.71 1026.30 1026.94 1027.78 1028.24 1028.57 1029.22 1029.58 1030.17 1030.72 1031.24 1031.63 1032.13 1032.55 1032.73 1032.83 1032.93 1033.11 1033.09 1033.08 1033.26 1033.46 1033.73 1033.48
1013.69 1014.08 1014.67 1015.22 1015.86 1016.63 1017.23 1017.37 1018.32 1019.28 1019.85 1020.27 1020.99 1021.71 1022.22 1022.72 1023.35 1024.02 1024.57 1025.25 1025.80 1026.64 1027.44 1028.06 1028.74 1029.17 1029.78 1030.27 1030.88 1031.41 1031.76 1032.25 1032.70 1032.95 1032.98 1033.11 1033.35 1033.47 1033.39 1033.45 1033.52 1033.79 1033.95
1013.26 1013.65 1014.14 1014.34 1014.96 1015.45 1016.67 1017.56 1017.92 1018.69 1019.09 1019.88 1020.44 1020.92 1021.49 1022.00 1022.69 1023.53 1024.22 1024.92 1025.79 1026.38 1027.30 1027.93 1028.68 1029.26 1029.88 1030.47 1030.99 1031.57 1031.90 1032.30 1032.85 1033.04 1033.12 1033.30 1033.69 1033.79 1033.79 1033.81 1033.90 1033.90 1034.05
1012.39 1012.68 1012.96 1013.55 1014.32 1015.23 1016.31 1016.74 1017.49 1017.95 1018.55 1019.10 1019.87 1020.40 1020.95 1021.49 1022.25 1023.01 1023.84 1024.61 1025.59 1026.29 1027.14 1027.81 1028.58 1029.24 1029.86 1030.53 1031.12 1031.58 1031.90 1032.34 1032.81 1033.03 1033.18 1033.58 1033.79 1034.09 1034.18 1034.18 1034.25 1034.31 1034.23
1011.43 1011.86 1012.06 1012.81 1013.79 1014.51 1015.44 1015.84 1016.64 1017.23 1017.70 1018.36 1019.04 1019.71 1020.56 1021.19 1021.88 1022.76 1023.66 1024.64 1025.53 1026.30 1027.00 1027.85 1028.56 1029.20 1029.85 1030.55 1031.03 1031.40 1031.86 1032.36 1032.85 1033.07 1033.24 1033.54 1033.56 1034.14 1034.36 1034.33 1034.48 1034.55 1034.42
1011.27 1011.48 1011.78 1012.21 1012.88 1013.64 1014.54 1015.27 1015.86 1016.36 1017.32 1018.35 1018.93 1019.37 1020.21 1021.06 1021.80 1022.70 1023.64 1024.49 1025.36 1026.20 1027.00 1027.69 1028.39 1029.10 1029.76 1030.38 1030.96 1031.33 1031.87 1032.32 1032.73 1032.91 1033.08 1033.39 1033.70 1034.05 1034.22 1034.33 1034.44 1034.51 1034.43
1011.37 1011.45 1011.76 1011.87 1012.44 1013.19 1013.80 1014.62 1015.43 1016.06 1016.90 1017.81 1018.66 1019.46 1020.14 1021.00 1021.79 1022.70 1023.67 1024.53 1025.25 1026.07 1026.90 1027.70 1028.45 1029.11 1029.67 1030.21 1030.77 1031.31 1031.89 1032.32 1032.57 1032.62 1032.79 1033.13 1033.45 1033.86 1034.09 1034.19 1034.37 1034.43 1034.39
1011.22 1011.13 1011.35 1011.68 1012.17 1013.01 1013.67 1014.33 1015.09 1015.79 1016.45 1017.30 1018.37 1019.32 1020.19 1021.06 1021.87 1022.82 1023.75 1024.57 1025.28 1025.95 1026.82 1027.70 1028.61 1029.40 1030.03 1030.56 1031.27 1031.70 1032.08 1032.41 1032.63 1032.61 1032.60 1032.83 1033.22 1033.41 1033.73 1033.96 1034.26 1034.29 1034.30
1010.25 1010.54 1010.73 1011.29 1011.81 1012.41 1013.00 1013.75 1014.57 1015.25 1016.04 1017.20 1018.19 1019.08 1020.25 1021.25 1022.01 1022.74 1023.73 1024.72 1025.53 1026.22 1026.97 1028.02 1028.81 1029.67 1030.35 1030.91 1031.35 1031.87 1032.27 1032.46 1032.53 1032.67 1032.81 1032.82 1032.80 1033.20 1033.48 1033.75 1033.97 1034.01 1033.95
1009.96 1010.15 1010.09 1010.38 1010.96 1011.53 1012.21 1013.18 1014.06 1015.01 1015.87 1016.85 1017.88 1018.92 1020.02 1021.21 1022.29 1023.01 1023.80 1024.67 1025.55 1026.41 1027.28 1028.24 1029.04 1029.97 1030.78 1030.96 1031.31 1031.85 1032.39 1032.61 1032.61 1032.70 1032.92 1032.98 1033.32 1033.72 1034.03 1034.12 1034.08 1033.92 1033.78
1010.08 1010.19 1010.40 1010.48 1010.92 1011.51 1012.29 1013.16 1013.93 1014.81 1015.82 1016.83 1017.82 1018.86 1019.99 1021.10 1022.17 1023.15 1023.99 1024.90 1025.69 1026.54 1027.52 1028.48 1029.30 1030.13 1030.83 1031.07 1031.49 1031.93 1032.42 1032.60 1032.55 1032.60 1032.94 1033.58 1034.04 1034.01 1034.09 1034.27 1034.30 1034.19 1034.09
1009.43 1009.00 1009.26 1010.03 1010.75 1011.51 1012.31 1013.21 1014.17 1014.76 1015.57 1016.58 1017.60 1018.76 1019.77 1020.87 1021.95 1023.01 1024.06 1024.98 1025.93 1026.85 1027.92 1028.83 1029.60 1030.34 1031.11 1031.27 1031.63 1032.03 1032.48 1032.64 1032.89 1033.08 1033.52 1033.86 1034.13 1033.98 1033.99 1034.22 1034.18 1034.14 1034.03
1008.39 1008.23 1008.93 1010.09 1010.98 1011.85 1012.47 1013.45 1014.45 1015.12 1015.79 1016.57 1017.48 1018.47 1019.53 1020.52 1021.56 1022.59 1023.71 1024.87 1025.88 1026.83 1027.90 1029.05 1029.75 1030.30 1030.97 1031.30 1031.53 1032.01 1032.47 1032.84 1033.27 1033.67 1033.75 1033.77 1033.90 1033.81 1033.81 1034.06 1034.01 1034.04 1033.94
1009.77 1009.56 1010.09 1010.84 1011.95 1012.42 1012.98 1013.85 1014.68 1015.35 1015.94 1016.73 1017.78 1018.72 1019.65 1020.61 1021.58 1022.54 1023.70 1024.57 1025.83 1026.94 1027.99 1028.95 1029.88 1030.44 1030.86 1031.29 1031.40 1031.80 1032.32 1032.66 1033.18 1033.61 1033.87 1033.82 1033.54 1033.57 1033.48 1033.39 1033.71 1033.74 1033.68
1011.16 1011.00 1010.58 1011.39 1011.86 1012.90 1013.45 1014.19 1014.89 1015.45 1016.24 1017.13 1018.05 1018.90 1019.74 1020.63 1021.79 1022.78 1023.92 1024.59 1025.56 1026.95 1028.12 1029.03 1030.04 1030.57 1031.03 1031.12 1031.35 1031.61 1032.00 1032.40 1032.88 1033.30 1033.56 1033.56 1033.31 1033.19 1033.16 1033.35 1033.26 1033.15 1033.23
1011.97 1012.11 1012.02 1012.77 1012.72 1013.13 1013.45 1014.25 1014.91 1015.54 1016.39 1017.40 1018.27 1019.04 1019.79 1020.65 1021.62 1022.69 1023.90 1024.74 1025.53 1026.69 1027.86 1028.73 1029.67 1030.51 1031.04 1031.44 1031.33 1031.57 1031.96 1032.41 1033.00 1033.23 1033.27 1033.20 1033.08 1033.07 1033.18 1033.08 1033.03 1033.17 1033.64
1012.84 1012.72 1012.92 1012.69 1013.24 1013.18 1013.25 1013.84 1014.70 1015.48 1016.37 1017.28 1018.24 1019.05 1019.88 1020.81 1021.63 1022.57 1023.40 1024.49 1025.44 1026.29 1027.23 1028.21 1029.11 1029.84 1030.59 1031.09 1031.51 1031.84 1032.14 1032.36 1032.91 1033.17 1033.32 1033.29 1033.21 1033.20 1033.33 1033.26 1033.24 1033.40 1033.65
1012.99 1012.80 1013.08 1013.24 1013.03 1013.15 1013.40 1013.85 1014.53 1015.46 1016.22 1017.16 1018.04 1018.97 1019.74 1020.60 1021.63 1022.64 1023.30 1023.97 1024.75 1025.10 1026.19 1027.09 1027.95 1028.87 1029.69 1030.03 1030.55 1031.23 1031.88 1032.39 1032.71 1033.31 1033.34 1033.36 1033.41 1033.50 1033.48 1033.63 1033.77 1033.67 1033.64
1012.77 1012.72 1012.84 1013.10 1013.46 1012.95 1012.84 1013.64 1014.18 1014.97 1015.88 1016.77 1017.87 1018.64 1019.59 1020.56 1021.46 1022.43 1023.78 1024.23 1024.48 1024.85 1025.36 1026.02 1026.80 1027.95 1028.27 1029.13 1029.98 1030.74 1031.37 1031.91 1032.40 1032.99 1033.38 1033.66 1033.79 1034.02 1033.77 1033.82 1033.84 1033.95 1033.90
Thickness
5681 5683 5675 5668 5663 5659 5658 5655 5648 5638 5633 5630 5627 5623 5616 5611 5613 5613 5611 5608 5605 5600 5598 5591 5586 5583 5579 5573 5571 5568 5561 5557 5557 5557 5551 5548 5548 5545 5540 5537 5535 5532 5528
5682 5680 5672 5669 5667 5662 5655 5655 5646 5637 5634 5633 5627 5620 5615 5608 5610 5608 5606 5603 5600 5596 5593 5587 5581 5578 5572 5567 5562 5561 5555 5549 5549 5546 5540 5536 5535 5533 5529 5528 5524 5521 5518
5689 5689 5694 5688 5667 5661 5654 5651 5644 5638 5635 5633 5625 5617 5610 5604 5601 5602 5600 5597 5595 5592 5588 5582 5576 5569 5564 5558 5553 5552 5550 5544 5540 5541 5537 5528 5523 5518 5519 5516 5513 5510 5506
5695 5697 5689 5677 5673 5666 5655 5644 5645 5638 5634 5631 5622 5617 5611 5604 5601 5599 5597 5593 5590 5586 5580 5575 5571 5564 5556 5551 5547 5544 5540 5538 5534 5533 5530 5526 5521 5512 5507 5506 5502 5499 5494
5695 5696 5689 5681 5674 5666 5652 5646 5645 5639 5636 5628 5622 5614 5608 5603 5601 5597 5593 5589 5584 5579 5574 5568 5562 5556 5549 5543 5540 5537 5532 5530 5525 5524 5522 5518 5512 5506 5498 5490 5486 5488 5483
5689 5693 5686 5674 5667 5656 5648 5643 5639 5636 5632 5627 5621 5616 5607 5602 5597 5593 5588 5583 5577 5570 5565 5561 5556 5549 5543 5537 5533 5530 5525 5522 5519 5516 5513 5509 5504 5498 5491 5483 5478 5473 5472
5687 5686 5682 5675 5667 5659 5652 5647 5642 5635 5630 5626 5619 5617 5609 5604 5600 5594 5588 5580 5572 5563 5559 5554 5547 5544 5537 5531 5526 5522 5519 5516 5512 5509 5505 5502 5497 5491 5486 5478 5470 5464 5461
5688 5685 5684 5678 5672 5664 5654 5645 5638 5631 5628 5624 5619 5616 5612 5607 5601 5596 5588 5579 5571 5562 5553 5548 5542 5537 5532 5525 5521 5516 5513 5509 5504 5501 5498 5493 5488 5484 5479 5472 5463 5454 5449
5689 5685 5683 5679 5674 5665 5656 5653 5643 5632 5628 5627 5620 5615 5613 5608 5601 5594 5588 5577 5567 5557 5550 5543 5536 5531 5526 5520 5514 5510 5507 5503 5498 5494 5490 5485 5480 5475 5470 5464 5457 5448 5431
5687 5686 5683 5682 5677 5670 5657 5649 5645 5633 5632 5625 5620 5618 5615 5610 5603 5595 5586 5575 5563 5554 5545 5539 5531 5526 5520 5514 5509 5504 5501 5497 5491 5487 5483 5478 5471 5465 5460 5453 5445 5439 5430
5691 5690 5689 5686 5677 5668 5657 5652 5644 5640 5633 5627 5621 5617 5613 5608 5601 5593 5583 5572 5561 5552 5542 5535 5527 5520 5515 5510 5504 5499 5495 5490 5484 5480 5476 5469 5463 5456 5450 5443 5435 5428 5421
5697 5693 5692 5686 5676 5670 5660 5655 5648 5642 5635 5629 5622 5617 5609 5604 5597 5587 5577 5567 5557 5547 5540 5531 5523 5517 5510 5505 5500 5495 5489 5484 5478 5473 5468 5461 5455 5448 5441 5433 5425 5417 5410
5693 5691 5690 5686 5680 5673 5664 5657 5650 5643 5634 5624 5618 5615 5606 5598 5590 5581 5571 5561 5552 5543 5535 5528 5521 5513 5505 5500 5493 5488 5483 5478 5472 5467 5462 5455 5448 5440 5433 5425 5416 5408 5401
5683 5684 5683 5683 5678 5672 5665 5657 5649 5642 5633 5623 5615 5608 5600 5592 5583 5573 5563 5554 5546 5538 5530 5522 5514 5506 5500 5494 5487 5482 5476 5471 5465 5461 5456 5448 5442 5433 5424 5416 5408 5400 5392
5674 5677 5678 5675 5672 5665 5660 5653 5644 5637 5630 5623 5613 5604 5595 5587 5578 5567 5556 5548 5540 5532 5524 5516 5506 5498 5491 5485 5479 5474 5469 5464 5458 5454 5450 5443 5435 5427 5418 5409 5400 5393 5384
5677 5676 5676 5675 5666 5662 5657 5650 5641 5635 5628 5618 5609 5599 5588 5579 5570 5561 5551 5541 5532 5525 5517 5508 5499 5490 5482 5477 5472 5467 5461 5457 5452 5447 5441 5436 5429 5420 5411 5401 5393 5386 5379
5673 5670 5672 5673 5669 5662 5657 5648 5640 5631 5623 5614 5603 5593 5583 5570 5559 5552 5545 5536 5526 5517 5509 5499 5491 5481 5474 5469 5465 5459 5453 5448 5444 5439 5433 5427 5418 5410 5400 5392 5385 5378 5371
5665 5665 5663 5662 5661 5654 5647 5639 5633 5625 5615 5606 5597 5586 5574 5563 5553 5544 5536 5527 5519 5510 5500 5490 5482 5473 5466 5462 5456 5450 5445 5441 5437 5433 5426 5417 5407 5400 5392 5384 5376 5369 5361
5660 5668 5666 5658 5651 5644 5637 5629 5620 5615 5609 5600 5590 5579 5568 5558 5548 5538 5528 5520 5510 5501 5491 5482 5474 5465 5458 5453 5448 5443 5437 5433 5427 5423 5415 5407 5399 5391 5384 5377 5369 5361 5353
5658 5663 5657 5647 5639 5630 5627 5618 5609 5603 5598 5592 5583 5573 5562 5553 5544 5534 5523 5512 5503 5494 5484 5473 5466 5459 5452 5446 5441 5435 5430 5424 5416 5410 5404 5398 5391 5384 5378 5370 5362 5353 5345
5637 5641 5637 5630 5620 5615 5612 5605 5598 5592 5588 5581 5572 5562 5553 5544 5535 5525 5515 5506 5494 5484 5475 5466 5457 5452 5445 5439 5433 5428 5423 5417 5409 5402 5396 5390 5384 5378 5372 5366 5357 5348 5340
5615 5619 5622 5615 5609 5600 5597 5590 5586 5581 5576 5568 5560 5552 5543 5536 5524 5514 5504 5498 5489 5476 5465 5457 5447 5442 5436 5431 5425 5420 5415 5409 5403 5397 5390 5384 5378 5373 5367 5359 5352 5343 5334
5595 5596 5597 5591 5590 5583 5585 5576 5573 5571 5564 5556 5549 5541 5534 5527 5517 5507 5496 5488 5480 5469 5458 5451 5442 5433 5427 5422 5417 5412 5406 5401 5395 5389 5382 5377 5372 5366 5360 5353 5345 5337 5327
5574 5578 5576 5578 5575 5575 5574 5570 5565 5561 5554 5546 5538 5531 5524 5516 5508 5500 5493 5482 5472 5463 5455 5445 5436 5429 5421 5415 5410 5404 5398 5392 5386 5380 5375 5370 5365 5360 5353 5346 5338 5329 5319
5558 5563 5560 5559 5562 5563 5562 5559 5554 5548 5542 5535 5528 5521 5515 5509 5499 5490 5484 5478 5469 5464 5453 5445 5437 5426 5418 5415 5408 5400 5392 5387 5381 5374 5368 5362 5356 5349 5343 5336 5327 5319 5310
5547 5550 5550 5548 5547 5553 5555 5548 5544 5539 5533 5525 5517 5511 5504 5497 5490 5482 5469 5466 5462 5457 5451 5445 5436 5425 5420 5412 5403 5395 5387 5380 5374 5367 5358 5352 5345 5338 5332 5324 5316 5308 5300